This is the latest recevied weather packets stored in our database for station/object CE3MXM-12. If no packets are shown the sender has not sent any weather packets the latest 10 day(s).
| Time | Temp. | Humidity | Pressure | Rain* | Wind** | Luminosity | Snow |
|---|---|---|---|---|---|---|---|
| 1777491463 | 23.33° C | 53% | 1012.8 hPa | - | - | - | - |
| 1777491163 | 23.33° C | 53% | 1012.8 hPa | - | - | - | - |
| 1777490863 | 23.33° C | 52% | 1012.8 hPa | - | - | - | - |
| 1777490563 | 23.33° C | 52% | 1012.9 hPa | - | - | - | - |
| 1777490262 | 23.89° C | 52% | 1012.9 hPa | - | - | - | - |
| 1777489963 | 23.33° C | 54% | 1013 hPa | - | - | - | - |
| 1777489663 | 23.33° C | 53% | 1012.9 hPa | - | - | - | - |
| 1777489363 | 23.33° C | 52% | 1013.2 hPa | - | - | - | - |
| 1777489062 | 23.89° C | 52% | 1013.1 hPa | - | - | - | - |
| 1777488762 | 23.89° C | 52% | 1013.2 hPa | - | - | - | - |
| 1777488462 | 23.33° C | 52% | 1013.2 hPa | - | - | - | - |
| 1777488162 | 23.33° C | 52% | 1013.3 hPa | - | - | - | - |
| 1777487862 | 24.44° C | 51% | 1013.2 hPa | - | - | - | - |
| 1777487562 | 23.89° C | 51% | 1013.3 hPa | - | - | - | - |
| 1777487262 | 23.89° C | 51% | 1013.4 hPa | - | - | - | - |
| 1777486961 | 23.89° C | 52% | 1013.5 hPa | - | - | - | - |
| 1777486661 | 23.89° C | 52% | 1013.2 hPa | - | - | - | - |
| 1777486361 | 23.33° C | 52% | 1013.5 hPa | - | - | - | - |
| 1777486062 | 23.33° C | 53% | 1013.4 hPa | - | - | - | - |
| 1777485761 | 23.33° C | 52% | 1013.6 hPa | - | - | - | - |
| 1777485461 | 23.33° C | 51% | 1013.8 hPa | - | - | - | - |
| 1777485161 | 23.33° C | 52% | 1013.8 hPa | - | - | - | - |
| 1777484861 | 23.33° C | 52% | 1013.9 hPa | - | - | - | - |
| 1777484561 | 23.33° C | 52% | 1014 hPa | - | - | - | - |
| 1777484261 | 22.78° C | 54% | 1014 hPa | - | - | - | - |
* Rain since midnight (hover to see other rain measurements)
** Current wind speed in m/s (hover to see current wind gust speed)